Date,TemperatureHighF,TemperatureAvgF,TemperatureLowF,DewpointHighF,DewpointAvgF,DewpointLowF,HumidityHigh,HumidityAvg,HumidityLow,PressureMaxIn,PressureMinIn,WindSpeedMaxMPH,WindSpeedAvgMPH,GustSpeedMaxMPH,PrecipitationSumIn
2013-10-1,77.0,65.9,55.4,53.2,43.5,29.1,78,49,18,29.96,29.62,22,6,22,0.00
2013-10-2,80.0,66.7,51.7,63.8,46.8,32.6,74,50,27,29.98,29.75,31,7,31,0.00
2013-10-3,67.7,60.7,58.0,60.4,58.4,56.4,98,92,77,29.85,29.73,18,5,18,0.14
2013-10-4,68.0,59.6,54.6,63.7,58.0,54.0,99,95,82,29.88,29.66,22,7,22,0.38
2013-10-5,60.2,46.3,38.8,59.1,38.5,34.9,96,75,56,29.81,29.70,26,8,26,0.00
2013-10-6,48.1,44.5,40.8,46.2,42.2,37.9,97,92,80,29.95,29.74,33,9,33,0.16
2013-10-7,71.7,54.7,40.8,49.6,43.4,37.5,90,68,40,30.01,29.94,12,4,12,0.00
2013-10-8,77.5,62.4,49.7,48.0,44.1,41.5,74,54,30,29.94,29.79,32,9,32,0.00
2013-10-9,76.0,62.5,52.4,52.6,48.6,46.3,83,62,41,29.98,29.90,24,8,24,0.00
2013-10-10,78.5,64.5,52.7,54.2,49.5,46.3,80,60,37,29.98,29.77,28,9,28,0.00
2013-10-11,71.7,61.1,50.1,59.6,52.6,42.4,87,74,49,29.78,29.53,33,12,33,0.00
2013-10-12,61.7,51.0,42.0,42.4,34.1,24.0,83,56,26,30.25,29.75,32,10,32,0.00
2013-10-13,62.7,48.7,33.7,38.8,31.6,27.8,80,54,32,30.44,30.25,12,2,12,0.00
2013-10-14,55.3,47.6,43.7,47.9,38.4,32.3,98,71,53,30.35,29.74,32,9,32,0.78
2013-10-15,53.5,46.3,42.3,52.4,44.8,41.0,97,95,93,29.93,29.64,28,13,28,0.03
2013-10-16,52.6,44.3,38.2,41.3,37.4,28.8,96,79,42,30.03,29.93,25,8,25,0.01
2013-10-17,57.7,43.1,34.9,42.9,35.5,31.2,90,76,42,29.98,29.82,28,8,28,0.00
2013-10-18,49.7,41.3,32.2,35.1,30.6,24.1,89,68,39,30.07,29.92,21,7,21,0.00
2013-10-19,51.4,40.1,31.8,40.6,32.2,25.9,93,75,46,29.92,29.76,30,8,30,0.01
2013-10-20,55.2,42.0,34.4,42.0,34.4,27.3,89,75,56,29.96,29.67,35,11,35,0.00
2013-10-22,38.4,36.4,34.1,28.2,26.4,24.8,74,67,61,30.12,30.03,20,10,20,0.03
2013-10-23,37.3,33.8,30.8,32.6,28.0,23.5,93,80,62,30.19,30.08,23,7,23,0.03
2013-10-24,46.6,36.7,30.0,31.6,28.2,24.3,90,73,43,30.39,30.19,25,8,25,0.00
2013-10-25,58.5,41.5,27.0,39.2,31.9,23.5,91,71,48,30.40,29.95,35,9,35,0.00
2013-10-26,46.7,39.9,30.9,37.2,29.1,24.6,80,66,48,30.18,29.94,29,10,29,0.00
2013-10-27,59.7,42.7,28.7,38.2,31.3,23.7,83,66,43,30.11,29.83,20,7,20,0.00
2013-10-28,43.1,37.3,31.7,33.4,30.2,27.9,89,76,66,30.36,30.08,27,10,27,0.00
2013-10-29,49.1,40.6,34.4,45.2,36.6,29.1,97,86,73,30.33,30.03,19,6,19,0.12
2013-10-30,52.1,46.9,40.4,51.6,46.3,39.9,98,98,97,30.03,29.72,16,3,16,0.07
2013-10-31,41.9,38.4,35.0,39.8,36.7,33.8,100,94,86,29.72,29.47,20,7,20,0.01